Vancouver, WA
on Tuesday, February 19, 2013

Tuesday
Previous Day Next Day
Daily Summary
 ActualAverageRecord
Temperature
Mean Temperature °F 44°F  
Max Temperature 54°F 52°F 64°F (1896)
Min Temperature 34°F 35°F 15°F (2006)
Degree Days
Heating Degree Days 21    
Month to date heating degree days 416  
Since 1 July heating degree days 2839  
Cooling Degree Days 0    
Month to date cooling degree days 0  
Year to date cooling degree days 0  
Moisture
Dew Point 35°F   
Average Humidity 69    
Maximum Humidity 92    
Minimum Humidity 45    
Precipitation
Precipitation 0.05 in 0.10 in 2.54 in (1968)
Month to date precipitation 0.30 2.82  
Year to date precipitation 3.70 8.32  
Snow
Snow 0.00 in in in ()
Month to date snowfall 0.0  
Snow Depth 0.00 in   
Wind
Wind Speed 4 mph   
Max Wind Speed 13 mph   
Max Gust Speed 21 mph   
Visibility 10 miles   
Events Rain   

Key: T is trace of precipitation, MM is missing value
Source: NWS Daily Summary
Time(PST)TemperatureDew PointHumidity Pressure Visibility Wind DirectionWind SpeedGust SpeedPrecipitationEvents Conditions
12:53 AM 42.1°F 35.1°F 76% 29.75 in 10.0 miles ESE 8.1 mph - 0.00 in Rain Light Rain
1:00 AM 42.8°F 35.6°F 76% 29.74 in 10.0 miles ESE 3.5 mph - 0.00 in Rain Light Rain
1:53 AM 41.0°F 37.0°F 86% 29.73 in 10.0 miles East 5.8 mph - 0.02 in   Overcast
2:26 AM 41.0°F 35.6°F 81% 29.72 in 10.0 miles East 3.5 mph - N/A   Overcast
2:53 AM 41.0°F 36.0°F 82% 29.72 in 10.0 miles ESE 4.6 mph - 0.00 in Rain Light Rain
3:22 AM 39.2°F 35.6°F 87% 29.72 in 10.0 miles ESE 5.8 mph - 0.00 in Rain Light Rain
3:53 AM 39.9°F 36.0°F 86% 29.72 in 10.0 miles Calm Calm - 0.01 in Rain Light Rain
4:16 AM 39.2°F 35.6°F 87% 29.72 in 10.0 miles East 4.6 mph - 0.00 in Rain Light Rain
4:53 AM 39.9°F 36.0°F 86% 29.72 in 10.0 miles ESE 3.5 mph - 0.01 in Rain Light Rain
5:21 AM 39.2°F 37.4°F 93% 29.72 in 10.0 miles Calm Calm - 0.00 in Rain Light Rain
5:44 AM 39.2°F 37.4°F 93% 29.72 in 10.0 miles East 6.9 mph - 0.01 in Rain Light Rain
5:53 AM 39.9°F 36.0°F 86% 29.73 in 10.0 miles East 4.6 mph - 0.01 in   Overcast
6:53 AM 39.0°F 35.1°F 86% 29.73 in 10.0 miles Calm Calm - 0.00 in   Mostly Cloudy
7:53 AM 35.1°F 33.1°F 92% 29.75 in 10.0 miles Calm Calm - N/A   Clear
8:53 AM 42.1°F 37.9°F 85% 29.75 in 10.0 miles WNW 5.8 mph - N/A   Clear
10:53 AM 46.0°F 39.0°F 76% 29.78 in 10.0 miles WNW 8.1 mph - N/A   Partly Cloudy
11:53 AM 48.9°F 37.9°F 66% 29.78 in 10.0 miles WNW 9.2 mph - N/A   Clear
12:53 PM 51.1°F 36.0°F 56% 29.79 in 10.0 miles NW 6.9 mph - N/A   Clear
1:53 PM 53.1°F 32.0°F 45% 29.80 in 10.0 miles NNW 8.1 mph - N/A   Clear
2:53 PM 53.1°F 32.0°F 45% 29.80 in 10.0 miles WNW 8.1 mph - N/A   Clear
4:53 PM 48.9°F 33.1°F 54% 29.84 in 10.0 miles NE 4.6 mph - N/A   Scattered Clouds
5:53 PM 48.0°F 33.1°F 56% 29.86 in 10.0 miles Variable 3.5 mph - N/A   Partly Cloudy
6:53 PM 46.0°F 33.1°F 61% 29.88 in 10.0 miles Calm Calm - N/A   Clear
7:53 PM 42.1°F 34.0°F 73% 29.91 in 10.0 miles Calm Calm - N/A   Clear
8:53 PM 37.0°F 32.0°F 82% 29.94 in 10.0 miles Calm Calm - N/A   Partly Cloudy
9:53 PM 41.0°F 35.1°F 79% 29.96 in 10.0 miles Calm Calm - N/A   Scattered Clouds
10:53 PM 37.9°F 34.0°F 86% 29.99 in 10.0 miles Calm Calm - N/A   Overcast
11:53 PM 35.1°F 32.0°F 89% 30.01 in 10.0 miles Calm Calm - N/A   Clear
Moon Phase
Feb. 19 Feb. 25 Mar. 04 Mar. 11 Mar. 19
Sunrise:07:05 AM (PST) Moon Rise:12:10 PM (PST)2/19
Sunset:05:43 PM (PST) Moon Set:02:51 AM (PST)2/19

Copyright © 2014 The Weather Underground, Inc.